Home > Weather > Barysaw > Past weeks

Flag for Belarus Weather for the Past 2 Weeks in Barysaw, Belarus

Now
30 °F

Passing clouds.


Feels Like: 23 °F
Forecast: 35 / 41 °F
Wind: 8 mph from Southeast

Location: Minsk

Current Time: Feb 8, 2016 at 3:42:37 AM

Latest Report: Feb 8, 2016 at 3:00 AM


Visibility: N/A

Pressure: 29.98 "Hg

Humidity: 80%

Dew point: 25 °F

Location of BarysawLocation

Historic Weather in Barysaw — Graph

°F

Barysaw Temperature Yesterday

Maximum temperature yesterday: 41 °F (at 3:30 PM)
Minimum temperature yesterday: 30 °F (at 8:30 AM)
Average temperature yesterday: 35 °F

High & Low Weather Summary for the Past Weeks

 TemperatureHumidityPressure
High45 °F (Feb 2, 3:30 PM)100% (Jan 25, 5:00 AM)30.48 "Hg (Jan 25, 5:00 AM)
Low1 °F (Jan 24, 9:00 AM)60% (Feb 6, 2:00 PM)29.39 "Hg (Jan 31, 9:00 AM)
Average32 °F87%29.86 "Hg
* Reported Jan 24 2:03 AM — Feb 8 2:00 AM, Barysaw, Weather by CustomWeather, © 2016

Note: Actual official high and low records may vary slightly from our data, if they occured in-between our weather recording intervals... More about our weather records

Advertising

Barysaw Weather History for the Previous 24 Hours

 ConditionsComfort  
Time TempWeatherWind HumidityBarometerVisibility
2:00 AM
Mon, Feb 8
32 °FPassing clouds.8 mph75%29.98 "HgN/A
1:30 AM32 °FClear.10 mph75%29.98 "Hg10 mi
1:00 AM32 °FClear.8 mph75%30.01 "Hg10 mi
12:30 AM32 °FPassing clouds.8 mph75%30.01 "HgN/A
12:00 AM32 °FPassing clouds.8 mph75%30.01 "HgN/A
11:30 PM
Sun, Feb 7
34 °FPassing clouds.10 mph70%30.01 "HgN/A
11:00 PM34 °FClear.13 mph70%30.01 "Hg10 mi
10:30 PM34 °FClear.8 mph70%30.04 "Hg10 mi
10:00 PM34 °FClear.8 mph75%30.04 "Hg10 mi
9:30 PM36 °FPassing clouds.8 mph70%30.04 "HgN/A
9:00 PM36 °FClear.13 mph70%30.04 "Hg10 mi
8:30 PM36 °FClear.10 mph70%30.04 "Hg10 mi
8:00 PM37 °FClear.10 mph65%30.04 "Hg10 mi
7:30 PM37 °FClear.10 mph65%30.04 "Hg10 mi
7:00 PM37 °FSunny.8 mph70%30.04 "Hg10 mi
6:30 PM39 °FSunny.10 mph65%30.04 "Hg10 mi
6:00 PM39 °FSunny.13 mph65%30.04 "Hg10 mi
5:30 PM39 °FSunny.13 mph65%30.04 "Hg10 mi
5:00 PM39 °FSunny.13 mph65%30.04 "Hg10 mi
4:30 PM41 °FPassing clouds.6 mph61%30.04 "HgN/A
4:00 PM41 °FPassing clouds.10 mph61%30.04 "HgN/A
3:30 PM41 °FPassing clouds.8 mph66%30.04 "HgN/A
3:00 PM39 °FSunny.10 mph65%30.04 "Hg10 mi
2:30 PM39 °FPassing clouds.10 mph65%30.07 "HgN/A
2:00 PM39 °FSunny.10 mph65%30.07 "Hg10 mi
1:30 PM37 °FPassing clouds.8 mph70%30.07 "HgN/A
1:00 PM37 °FPassing clouds.8 mph70%30.09 "HgN/A
12:30 PM36 °FPassing clouds.8 mph75%30.09 "HgN/A
12:00 PM34 °FSunny.10 mph75%30.09 "Hg10 mi
11:30 AM34 °FPassing clouds.8 mph75%30.09 "HgN/A
11:00 AM32 °FSunny.10 mph80%30.09 "Hg10 mi
10:30 AM32 °FPassing clouds.6 mph80%30.09 "HgN/A
10:00 AM32 °FSunny.8 mph80%30.09 "Hg10 mi
9:30 AM30 °FClear.8 mph86%30.09 "Hg10 mi
9:00 AM30 °FClear.8 mph86%30.09 "Hg10 mi
8:30 AM30 °FPassing clouds.8 mph86%30.09 "HgN/A
8:00 AM32 °FPartly cloudy.6 mph80%30.09 "HgN/A
7:30 AM32 °FPassing clouds.6 mph87%30.09 "HgN/A
7:00 AM32 °FPartly cloudy.6 mph87%30.09 "HgN/A
6:30 AM32 °FOvercast.8 mph87%30.09 "HgN/A
6:00 AM32 °FPassing clouds.6 mph87%30.09 "HgN/A
5:30 AM32 °FPassing clouds.6 mph87%30.12 "HgN/A
5:00 AM32 °FPassing clouds.8 mph87%30.09 "HgN/A
4:30 AM32 °FPassing clouds.6 mph87%30.12 "HgN/A
4:00 AM32 °FPassing clouds.6 mph87%30.12 "HgN/A
3:30 AM32 °FPartly cloudy.3 mph80%30.12 "HgN/A
3:00 AM32 °FPassing clouds.6 mph80%30.12 "HgN/A
Weather by CustomWeather, © 2016

See weather overviewHow to use our weather pages